Weather History for New Philadelphia, OH

Change the Weather History Date:

Wednesday, May 8, 2013

  Actual Average Record
Temperature  
Mean Temperature 65 °F 58 °F  
Max Temperature 73 °F 70 °F 85 °F (1965)
Min Temperature 57 °F 45 °F 28 °F (1968)
Degree Days  
Heating Degree Days 0 8  
Month to date heating degree days 10 70  
Since 1 July heating degree days 5450 5485  
Cooling Degree Days 0 0  
Month to date cooling degree days 1 0  
Year to date cooling degree days 13 7  
Growing Degree Days 15 (Base 50)    
Moisture  
Dew Point 50 °F    
Average Humidity 62    
Maximum Humidity 86    
Minimum Humidity 38    
Precipitation  
Precipitation 0.04 in 0.13 in 0.85 in (1982)
Month to date precipitation 0.10 0.92  
Year to date precipitation 8.17 12.35  
Sea Level Pressure  
Sea Level Pressure 29.95 in    
Wind  
Wind Speed 3 mph (NE)    
Max Wind Speed 14 mph    
Max Gust Speed 18 mph    
Visibility 10 miles    
Events Rain    
T = Trace of Precipitation, MM = Missing Value Source: NWS Daily Summary

Daily Weather History Graph

Daily Weather History Graph

Search for Another Location

Airport:

Trip Planner

Search our weather history database for the weather conditions in past years. The results will help you decide how hot, cold, wet, or windy it might be!

Date:

Astronomy

May. 08, 2013 Rise Set
Actual Time 6:16 AM EDT 8:28 PM EDT
Civil Twilight 5:45 AM EDT 8:59 PM EDT
Nautical Twilight 5:08 AM EDT 9:36 PM EDT
Astronomical Twilight 4:28 AM EDT 10:17 PM EDT
Moon 5:23 AM EDT (5/8) 7:25 PM EDT (5/8)
Length of Visible Light 15h 13m
Length of Day
14h 12m
Waning Crescent, 2% of the Moon is Illuminated
May 8
Waning Crescent
May 9
New
May 18
First Quarter
May 25
Full
May 31
Last Quarter

Hourly Weather History & Observations

Time (EDT) Temp. Dew Point Humidity Pressure Visibility Wind Dir Wind Speed Gust Speed Precip Events Conditions
12:53 AM 60.1 °F 52.0 °F 75% 29.96 in 10.0 mi NNE 4.6 mph - N/A   Overcast
1:53 AM 57.9 °F 53.1 °F 84% 29.95 in 10.0 mi Calm Calm - 0.00 in   Mostly Cloudy
2:53 AM 59.0 °F 52.0 °F 78% 29.93 in 10.0 mi Calm Calm - N/A   Mostly Cloudy
3:53 AM 59.0 °F 51.1 °F 75% 29.92 in 10.0 mi Calm Calm - N/A   Mostly Cloudy
4:53 AM 60.1 °F 52.0 °F 75% 29.92 in 10.0 mi NE 4.6 mph - N/A   Mostly Cloudy
5:24 AM 60.8 °F 51.8 °F 72% 29.92 in 10.0 mi NE 6.9 mph - N/A   Mostly Cloudy
5:53 AM 60.1 °F 52.0 °F 75% 29.92 in 10.0 mi NE 6.9 mph - N/A   Mostly Cloudy
6:53 AM 59.0 °F 52.0 °F 78% 29.94 in 10.0 mi ENE 5.8 mph - 0.00 in Rain Light Rain
7:53 AM 57.9 °F 52.0 °F 81% 29.97 in 10.0 mi ENE 4.6 mph - 0.01 in   Overcast
8:53 AM 59.0 °F 53.1 °F 81% 29.99 in 10.0 mi ENE 3.5 mph - N/A   Clear
9:53 AM 63.0 °F 51.1 °F 65% 29.99 in 10.0 mi East 5.8 mph - N/A   Mostly Cloudy
10:01 AM 64.4 °F 51.8 °F 64% 29.99 in 10.0 mi East 8.1 mph - N/A   Scattered Clouds
10:53 AM 64.9 °F 48.9 °F 56% 29.99 in 10.0 mi East 8.1 mph - N/A   Clear
11:53 AM 68.0 °F 46.9 °F 47% 29.99 in 10.0 mi East 8.1 mph - N/A   Scattered Clouds
12:53 PM 69.1 °F 46.9 °F 45% 29.97 in 10.0 mi Variable 4.6 mph - N/A   Partly Cloudy
1:53 PM 70.0 °F 46.0 °F 42% 29.96 in 10.0 mi Calm Calm - N/A   Partly Cloudy
2:53 PM 70.0 °F 46.0 °F 42% 29.95 in 10.0 mi NW 4.6 mph - N/A   Mostly Cloudy
3:53 PM 73.0 °F 46.0 °F 38% 29.92 in 10.0 mi North 3.5 mph - N/A   Mostly Cloudy
4:53 PM 72.0 °F 46.0 °F 40% 29.92 in 10.0 mi NNW 8.1 mph - N/A   Mostly Cloudy
5:53 PM 71.1 °F 46.0 °F 41% 29.93 in 10.0 mi North 3.5 mph - N/A   Overcast
6:53 PM 70.0 °F 48.0 °F 46% 29.93 in 10.0 mi North 3.5 mph - N/A   Overcast
7:53 PM 64.9 °F 50.0 °F 58% 29.94 in 10.0 mi ENE 5.8 mph - 0.00 in   Overcast
8:53 PM 63.0 °F 50.0 °F 63% 29.95 in 10.0 mi Calm Calm - N/A   Mostly Cloudy
9:53 PM 59.0 °F 53.1 °F 81% 29.96 in 10.0 mi Calm Calm - N/A   Clear
10:53 PM 59.0 °F 53.1 °F 81% 29.98 in 10.0 mi Calm Calm - N/A   Mostly Cloudy
11:53 PM 57.9 °F 55.0 °F 90% 29.97 in 8.0 mi Calm Calm - 0.02 in Rain Light Rain